Theta_e
354 362 366 366 365 364 364 364 362 362 362 362 362 362 362 362 364 364 364 364 364 364 363 360 358 357 357 355 356 358 357 357 356 354 356 356 352 350 350 352 354 345 350
357 363 365 364 364 364 364 363 362 362 362 363 361 362 362 363 364 363 363 363 364 363 362 359 355 355 356 354 354 355 355 355 353 354 354 355 353 351 350 350 351 346 349
358 364 365 364 364 364 364 363 361 361 362 362 361 361 361 363 364 363 362 362 361 361 358 355 353 353 353 354 354 354 353 351 350 350 354 350 346 351 350 350 348 346 346
360 363 363 364 364 364 363 362 361 361 362 361 361 361 361 363 363 363 362 362 360 357 354 352 352 353 355 355 353 353 352 349 352 354 350 350 342 352 350 349 348 346 344
360 362 365 365 364 364 364 362 361 361 361 361 361 361 361 362 362 362 362 361 359 355 352 351 354 356 355 354 354 354 352 353 356 351 347 341 346 350 352 349 349 348 347
357 358 364 365 364 364 364 362 361 361 361 361 361 361 362 362 362 361 361 359 357 355 354 354 355 356 356 354 354 352 351 352 349 341 345 343 347 354 354 351 352 351 348
354 362 363 364 365 365 364 363 362 361 361 361 361 361 362 361 361 361 360 358 356 354 353 353 353 354 354 353 351 349 347 347 339 339 341 343 348 353 354 352 351 350 349
351 361 361 364 364 364 364 363 362 361 361 361 361 361 361 360 360 360 359 357 356 354 353 351 350 350 350 348 346 345 344 344 338 335 336 338 350 353 354 353 354 353 352
351 359 359 359 363 363 363 362 362 361 360 360 360 360 360 360 359 359 358 357 355 354 352 350 349 347 345 343 343 343 343 345 335 331 334 340 349 351 350 353 355 355 355
347 357 356 357 358 361 361 362 361 361 360 359 359 360 359 359 359 358 355 356 355 353 352 349 347 345 343 343 343 343 344 345 336 332 332 339 345 348 348 351 353 354 356
346 353 354 355 357 357 359 361 361 362 361 359 359 359 356 354 355 354 352 354 354 353 351 348 346 345 344 344 345 345 346 335 331 333 336 348 349 350 347 349 350 351 354
343 347 352 354 354 354 353 361 360 360 359 359 358 358 356 355 353 352 351 354 353 352 350 348 347 346 344 334 335 345 338 333 332 338 340 350 350 351 350 352 353 354 353
343 345 349 353 354 351 350 359 358 359 359 359 358 359 357 354 355 350 350 348 348 350 343 343 342 338 335 333 333 336 335 336 336 342 344 350 348 349 352 353 354 355 355
336 347 350 353 354 353 350 354 352 352 355 356 358 360 356 354 355 347 346 344 345 341 338 337 336 336 336 338 339 342 343 342 343 346 346 350 349 350 353 354 354 355 355
335 342 350 355 355 354 361 353 351 348 351 351 352 355 355 351 352 348 347 345 342 340 337 339 337 337 340 342 343 345 345 346 349 348 348 352 350 350 353 355 355 356 356
330 342 346 358 357 358 355 364 354 349 352 349 350 350 353 350 353 349 349 350 341 340 338 338 343 346 342 342 345 350 351 351 351 351 348 349 351 351 352 354 355 356 356
331 336 353 355 360 359 356 360 362 356 353 348 348 354 349 354 355 347 346 347 346 343 350 342 347 345 345 341 345 352 351 352 351 351 351 348 349 350 351 352 352 354 354
338 342 348 350 361 360 359 357 359 354 352 351 349 350 351 354 354 348 344 345 345 350 350 348 346 342 340 340 341 346 349 350 352 351 351 348 348 349 349 350 351 352 353
335 336 341 351 355 361 360 357 356 360 358 355 351 350 351 351 351 348 344 344 349 349 347 345 345 342 339 339 342 346 349 349 349 346 346 348 350 346 350 350 351 351 352
336 340 340 347 362 362 361 359 358 356 355 355 353 349 352 349 350 351 345 346 350 346 345 344 342 342 341 342 339 337 346 348 349 349 347 348 348 350 351 349 348 350 350
334 336 341 342 363 362 359 355 354 352 354 354 351 356 352 350 350 347 347 349 347 344 343 344 343 343 338 343 340 339 342 348 348 348 350 347 346 348 350 346 348 345 346
332 340 341 343 349 360 355 357 355 353 353 354 355 353 355 352 351 347 347 343 344 342 343 345 341 338 341 343 336 336 330 336 346 350 347 346 344 348 350 350 348 348 349
330 336 337 339 345 347 358 357 356 355 353 350 351 352 353 353 353 349 348 344 343 343 342 343 346 342 336 338 343 336 330 329 338 346 347 347 345 345 344 344 344 347 349
326 328 331 339 342 343 343 352 352 348 345 346 349 351 349 354 354 350 349 348 345 345 343 345 346 344 342 336 338 341 346 341 332 331 341 343 341 339 341 342 342 348 349
325 330 334 338 337 339 343 339 345 344 349 350 351 351 352 353 353 352 351 350 346 346 348 346 345 347 344 339 338 345 340 338 336 331 325 332 335 336 334 338 338 345 343
323 324 328 334 337 338 340 345 339 342 344 345 346 345 346 348 351 352 352 352 353 349 351 349 351 349 347 343 340 345 339 334 331 329 327 327 327 329 333 334 334 339 343
Wind_Speed
18 19 19 20 21 19 19 17 17 16 16 14 14 13 13 14 14 14 14 14 14 14 13 12 11 10 11 13 14 12 11 10 9 9 9 10 9 8 8 10 4 11 10
22 18 17 20 21 19 18 18 18 17 16 15 15 13 12 13 13 13 13 13 13 12 12 11 11 10 11 12 12 11 9 6 5 5 7 9 10 8 9 12 14 9 8
21 16 17 18 20 19 17 17 17 17 16 16 16 14 14 12 13 12 13 12 12 11 11 11 11 11 11 11 10 9 6 3 1 1 3 4 8 9 8 9 9 8 6
19 14 16 17 20 20 18 15 17 17 16 16 15 14 14 13 13 13 12 11 11 11 11 11 10 9 9 9 9 7 4 2 5 6 7 9 8 11 9 7 7 6 5
17 14 15 15 18 19 18 16 15 15 15 15 15 15 14 13 12 12 12 10 10 11 10 10 9 8 8 7 7 5 2 5 8 10 9 6 5 8 9 6 5 5 6
17 15 19 15 17 18 17 16 15 15 15 15 15 15 14 14 13 12 11 11 10 10 10 9 8 8 7 6 4 3 1 6 10 8 4 3 7 10 8 6 4 5 4
16 17 16 16 16 17 17 17 14 14 14 14 15 14 13 13 14 13 12 11 11 10 10 9 8 6 6 5 3 1 3 7 7 9 5 4 8 11 8 6 3 3 2
16 16 15 16 15 16 16 16 16 15 13 14 14 15 14 13 12 12 11 10 10 10 9 8 8 7 5 4 3 3 4 6 8 8 7 1 10 10 8 6 4 4 3
18 16 13 14 13 14 14 14 15 16 14 14 14 14 14 13 13 12 11 10 10 9 9 8 7 7 6 5 4 4 5 6 6 6 10 4 10 9 7 6 6 6 6
15 18 16 13 13 12 11 13 14 15 16 15 15 14 14 13 12 11 9 8 9 8 8 7 7 6 6 5 6 6 7 8 7 9 8 5 11 10 7 6 6 7 8
13 15 17 15 12 12 13 11 12 14 14 16 15 15 13 8 9 11 11 13 9 8 7 7 6 6 5 6 9 9 9 5 9 7 3 13 11 9 7 6 6 7 8
14 17 18 16 15 13 12 13 11 11 9 9 9 11 8 8 10 11 11 13 12 10 9 8 7 6 6 5 6 10 5 8 8 7 5 13 12 10 8 7 7 7 8
12 13 19 19 16 14 10 11 7 7 7 7 11 10 9 7 7 6 6 6 6 8 5 7 6 5 7 6 6 7 9 8 7 4 8 13 12 10 9 8 8 8 9
12 5 13 18 16 15 9 10 11 8 8 8 9 12 8 5 5 6 7 8 7 6 7 7 5 7 8 8 7 5 6 4 3 2 6 12 12 11 10 10 10 11 10
4 10 22 16 14 12 7 10 11 10 10 9 10 10 8 8 6 8 5 8 8 8 8 6 6 8 7 6 4 6 7 6 5 2 3 12 11 12 12 11 11 12 12
9 8 13 3 13 12 10 5 7 10 11 9 8 10 12 10 6 7 6 5 8 6 9 7 6 5 5 5 8 7 6 5 5 5 2 5 12 11 11 11 11 12 10
9 8 12 13 15 12 10 8 4 8 7 10 8 10 14 12 9 11 8 6 6 8 6 7 6 5 5 6 7 6 5 7 5 5 3 4 6 11 10 10 9 10 9
6 8 4 10 15 14 12 9 6 7 9 10 11 10 16 12 8 9 10 9 8 6 5 4 4 4 4 5 4 5 5 5 7 6 4 4 4 3 8 10 10 10 11
3 5 7 9 11 16 13 11 11 7 7 6 9 10 15 16 12 11 7 8 6 4 4 4 3 3 4 5 5 6 5 4 5 4 5 6 5 2 3 9 12 12 12
4 1 4 7 3 12 10 9 8 10 9 9 9 12 13 12 14 8 9 7 7 5 4 5 5 6 5 5 6 5 5 5 4 4 3 3 3 5 6 5 5 5 12
1 3 2 6 6 3 6 9 9 11 11 10 12 12 13 15 15 14 8 7 10 9 7 7 6 7 7 5 1 4 3 4 4 4 3 3 4 6 6 6 4 4 4
6 5 6 5 7 7 7 8 10 10 11 11 10 13 11 16 17 15 13 11 11 11 13 13 13 9 5 7 5 2 3 4 4 5 3 5 6 5 6 5 6 6 3
8 8 8 8 8 7 10 8 8 10 10 9 13 13 16 18 19 19 17 15 13 13 11 10 9 11 9 7 7 5 4 5 4 3 4 3 5 3 3 5 6 6 5
7 5 7 7 7 6 8 7 12 13 14 13 11 13 15 18 20 20 19 18 12 8 11 9 9 8 6 8 3 7 1 2 4 3 3 5 5 4 4 4 5 6 6
9 6 4 3 2 5 7 7 6 14 12 12 12 14 15 14 18 20 18 16 16 11 13 13 12 11 9 5 5 5 1 1 1 2 4 4 2 4 4 4 5 4 5
11 9 8 7 5 6 8 7 10 11 15 13 13 10 12 13 14 18 18 16 15 16 12 12 10 14 12 11 7 8 6 5 5 4 3 3 4 4 4 5 6 5 5
Wind_Direction
130 139 138 135 133 135 137 140 136 132 129 128 126 122 117 110 107 107 103 103 111 114 116 115 109 98 90 87 84 80 78 78 80 91 98 99 81 62 53 34 301 84 82
131 142 139 138 136 138 141 145 140 136 135 134 130 125 117 114 110 110 109 106 110 115 120 115 106 102 103 99 95 89 83 82 93 100 122 117 103 79 58 55 65 86 88
128 135 144 141 139 141 145 148 140 139 140 139 135 134 127 123 117 114 112 114 117 121 121 116 115 117 116 112 105 100 94 64 37 110 221 214 118 108 86 75 78 82 85
130 140 143 147 142 142 146 149 143 143 145 142 139 137 133 131 129 124 121 124 123 125 125 124 124 126 121 116 111 104 90 335 307 307 258 218 123 126 112 93 86 83 78
132 147 135 147 145 144 147 147 147 144 147 145 143 141 138 133 131 128 128 128 131 131 130 132 131 131 130 121 110 99 59 303 319 313 287 36 114 133 125 120 127 105 71
137 151 140 144 145 147 148 145 149 149 151 148 149 145 142 139 134 133 136 139 143 139 139 140 140 141 131 125 123 113 319 316 323 291 282 98 108 144 137 128 107 100 82
147 126 143 140 146 147 149 145 149 152 153 152 151 146 145 144 142 144 148 150 150 148 145 146 143 144 146 148 152 173 297 308 296 292 296 122 128 150 143 144 143 136 151
145 137 146 142 147 146 147 149 152 154 157 154 154 151 150 148 147 148 147 154 152 150 150 150 153 152 155 165 185 219 265 292 306 302 300 60 147 144 152 165 190 203 212
145 144 153 157 152 145 150 152 154 155 158 157 154 153 151 152 151 154 154 159 155 156 155 159 162 162 172 191 213 241 260 279 290 285 288 102 141 140 162 187 205 231 232
154 144 151 163 166 164 163 158 159 159 159 157 152 150 150 152 152 154 150 158 154 159 159 165 168 175 193 209 224 243 261 274 264 267 267 134 146 145 161 199 216 225 238
157 143 147 164 170 178 164 165 154 163 160 157 154 154 149 169 171 164 186 156 156 161 165 171 180 190 205 232 235 229 238 247 251 234 250 144 148 154 175 200 234 233 237
167 159 153 161 171 186 172 154 176 173 178 174 178 167 180 196 173 177 166 158 158 165 173 182 190 200 223 240 218 228 225 240 250 253 137 156 158 168 183 204 228 244 245
186 169 160 162 165 182 207 152 169 172 180 184 185 176 200 198 177 197 140 157 163 181 191 188 194 215 219 229 246 196 219 230 244 247 145 166 162 177 194 208 225 234 239
303 214 158 163 163 171 191 158 166 178 180 182 196 183 188 201 192 180 161 173 177 174 212 182 199 205 223 236 250 265 256 247 254 271 159 165 173 184 202 212 219 231 232
218 120 309 164 164 169 190 162 168 181 176 186 182 190 186 207 192 169 190 179 178 180 198 194 205 200 215 222 252 234 249 257 272 337 156 190 189 191 203 221 222 230 233
265 170 172 142 175 162 187 189 169 181 167 187 182 188 193 191 185 174 202 183 177 207 190 204 194 188 193 211 222 231 253 270 253 231 274 176 206 204 207 222 227 235 244
240 247 166 185 164 166 180 179 187 180 150 189 182 178 196 188 203 174 187 209 180 194 197 196 198 202 183 212 239 201 210 229 246 262 244 241 198 212 205 218 235 238 233
15 358 317 185 159 168 170 187 204 207 199 190 187 185 189 195 197 208 178 201 198 182 182 180 189 182 204 228 229 231 206 213 215 223 229 272 257 180 207 210 225 231 234
323 293 314 313 181 168 175 185 198 204 211 203 195 195 197 195 202 176 205 181 184 226 169 172 193 183 206 236 226 217 218 210 204 211 225 237 240 246 238 194 211 225 229
206 32 324 322 239 168 171 183 193 211 218 207 210 207 194 196 203 193 204 184 176 200 183 184 194 198 207 213 233 249 216 201 197 203 212 263 291 240 258 193 206 231 229
351 143 233 301 283 208 167 199 199 203 215 221 208 211 197 183 191 199 201 188 187 188 199 197 214 196 211 221 204 287 268 203 215 199 201 202 242 226 229 222 211 230 221
223 198 185 237 286 230 204 198 212 208 215 212 217 217 206 188 192 196 197 199 203 193 198 195 201 212 206 184 171 187 242 273 220 178 210 214 213 225 225 232 242 231 216
205 195 192 196 221 259 241 222 223 227 242 232 213 212 211 200 192 190 195 207 206 198 193 218 195 191 195 222 198 167 184 206 149 150 202 228 234 232 275 285 270 224 224
357 266 190 198 195 224 259 253 232 221 221 228 216 213 212 200 188 187 202 209 204 202 201 204 211 198 190 205 216 220 155 143 161 172 163 187 222 245 244 268 268 249 192
346 333 309 335 276 226 209 225 249 261 245 238 231 233 210 192 180 192 201 203 203 213 201 200 202 199 203 209 188 160 196 110 319 147 197 210 253 244 247 261 274 258 233
346 341 346 358 4 347 317 243 230 247 255 251 237 225 225 225 196 199 201 205 203 204 208 199 191 203 200 206 220 183 183 165 200 178 221 241 217 254 231 252 273 284 240